• In Italy
  • List of Countries
  • For 7 days
  • Water Temperature
  • Satellite Maps
  • Weather Map
  • Weather Widgets
  • user-avatar
    Login

    Hourly Weather Canberra

    Today, 23 July, Sunday

    Time Temperature Precipitation Wind Pressure Humidity
    00:00 +3°C° 0 mm 2 mps 709 mmHg 64%
    01:00 +3°C° 0 mm 2 mps 709 mmHg 63%
    02:00 +2°C° 0 mm 2 mps 709 mmHg 63%
    03:00 +2°C° 0 mm 2 mps 709 mmHg 63%
    04:00 +1°C° 0 mm 3 mps 709 mmHg 63%
    05:00 +1°C° 0 mm 3 mps 708 mmHg 64%
    06:00 +1°C° 0 mm 3 mps 708 mmHg 65%
    07:00 +1°C° 0 mm 3 mps 708 mmHg 66%
    08:00 +4°C° 0 mm 4 mps 708 mmHg 58%
    09:00 +6°C° 0 mm 5 mps 708 mmHg 51%
    10:00 +9°C° 0 mm 6 mps 708 mmHg 43%
    11:00 +10°C° 0 mm 6 mps 708 mmHg 42%
    12:00 +11°C° 0 mm 7 mps 707 mmHg 42%
    13:00 +13°C° 0 mm 8 mps 707 mmHg 41%
    14:00 +12°C° 0 mm 7 mps 706 mmHg 44%
    15:00 +12°C° 0 mm 7 mps 706 mmHg 48%
    16:00 +11°C° 0 mm 6 mps 706 mmHg 51%
    17:00 +10°C° 0 mm 5 mps 706 mmHg 58%
    18:00 +8°C° 0 mm 5 mps 707 mmHg 65%
    19:00 +7°C° 0 mm 4 mps 707 mmHg 72%
    20:00 +7°C° 0 mm 4 mps 707 mmHg 75%
    21:00 +6°C° 0 mm 4 mps 708 mmHg 79%
    22:00 +6°C° 0 mm 4 mps 708 mmHg 82%
    23:00 +6°C° 0 mm 4 mps 708 mmHg 83%

    Tomorrow, 24 July, Monday

    Time Temperature Precipitation Wind Pressure Humidity
    00:00 +6°C° 0 mm 4 mps 708 mmHg 84%
    01:00 +6°C° 0 mm 4 mps 709 mmHg 84%
    02:00 +5°C° 0 mm 3 mps 709 mmHg 86%
    03:00 +5°C° 0 mm 3 mps 709 mmHg 88%
    04:00 +5°C° 0 mm 2 mps 709 mmHg 90%
    05:00 +5°C° 0 mm 2 mps 709 mmHg 91%
    06:00 +5°C° 0 mm 2 mps 710 mmHg 92%
    07:00 +4°C° 0 mm 2 mps 710 mmHg 93%
    08:00 +5°C° 0 mm 3 mps 711 mmHg 85%
    09:00 +8°C° 0 mm 3 mps 711 mmHg 77%
    10:00 +8°C° 0 mm 4 mps 712 mmHg 68%
    11:00 +10°C° 0 mm 4 mps 711 mmHg 65%
    12:00 +11°C° 0 mm 4 mps 711 mmHg 61%
    13:00 +11°C° 0 mm 4 mps 711 mmHg 58%
    14:00 +11°C° 0 mm 4 mps 711 mmHg 60%
    15:00 +10°C° 0 mm 4 mps 711 mmHg 63%
    16:00 +8°C° 0 mm 4 mps 711 mmHg 66%
    17:00 +8°C° 0 mm 3 mps 711 mmHg 71%
    18:00 +7°C° 0 mm 3 mps 712 mmHg 77%
    19:00 +6°C° 0 mm 2 mps 712 mmHg 82%
    20:00 +5°C° 0 mm 2 mps 712 mmHg 85%
    21:00 +4°C° 0 mm 2 mps 713 mmHg 87%
    22:00 +4°C° 0 mm 2 mps 713 mmHg 90%
    23:00 +3°C° 0 mm 2 mps 713 mmHg 91%

    Day after tomorrow, 25 July, Tuesday

    Time Temperature Precipitation Wind Pressure Humidity
    00:00 +4°C° 0 mm 1 mps 713 mmHg 92%
    01:00 +4°C° 0 mm 1 mps 712 mmHg 93%
    02:00 +4°C° 0 mm 1 mps 712 mmHg 94%
    03:00 +4°C° 0 mm 1 mps 712 mmHg 94%
    04:00 +4°C° 0 mm 1 mps 712 mmHg 94%
    05:00 +4°C° 0 mm 1 mps 712 mmHg 95%
    06:00 +4°C° 0 mm 1 mps 712 mmHg 95%
    07:00 +4°C° 0 mm 1 mps 713 mmHg 95%
    08:00 +5°C° 0 mm 2 mps 713 mmHg 87%
    09:00 +7°C° 0 mm 3 mps 713 mmHg 79%
    10:00 +9°C° 0 mm 3 mps 714 mmHg 70%
    11:00 +10°C° 0 mm 4 mps 713 mmHg 65%
    12:00 +12°C° 0 mm 5 mps 712 mmHg 60%
    13:00 +13°C° 0 mm 5 mps 712 mmHg 54%
    14:00 +13°C° 0 mm 5 mps 711 mmHg 56%
    15:00 +13°C° 0 mm 4 mps 711 mmHg 58%
    16:00 +12°C° 0 mm 4 mps 710 mmHg 60%
    17:00 +11°C° 0 mm 4 mps 710 mmHg 68%
    18:00 +9°C° 0 mm 3 mps 710 mmHg 76%
    19:00 +8°C° 0 mm 3 mps 710 mmHg 83%
    20:00 +8°C° 0 mm 3 mps 710 mmHg 79%
    21:00 +8°C° 0 mm 4 mps 710 mmHg 74%
    22:00 +8°C° 0 mm 4 mps 709 mmHg 69%
    23:00 +8°C° 0.1 mm 5 mps 709 mmHg 68%

    26 July, Wednesday

    Time Temperature Precipitation Wind Pressure Humidity
    00:00 +9°C° 0.1 mm 5 mps 709 mmHg 67%
    01:00 +9°C° 0.1 mm 5 mps 708 mmHg 66%
    02:00 +8°C° 0.2 mm 5 mps 708 mmHg 70%
    03:00 +8°C° 0.2 mm 5 mps 708 mmHg 73%
    04:00 +7°C° 0.2 mm 5 mps 707 mmHg 77%
    05:00 +7°C° 0.3 mm 5 mps 708 mmHg 81%
    06:00 +7°C° 0.3 mm 5 mps 708 mmHg 85%
    07:00 +7°C° 0.3 mm 5 mps 708 mmHg 90%
    08:00 +7°C° 0.1 mm 5 mps 708 mmHg 85%
    09:00 +8°C° 0.1 mm 6 mps 709 mmHg 81%
    10:00 +9°C° 0.1 mm 7 mps 709 mmHg 76%
    11:00 +9°C° 0.1 mm 7 mps 708 mmHg 72%
    12:00 +9°C° 0.1 mm 7 mps 708 mmHg 67%
    13:00 +10°C° 0.1 mm 8 mps 708 mmHg 63%
    14:00 +9°C° 0.1 mm 7 mps 708 mmHg 64%
    15:00 +9°C° 0.1 mm 7 mps 708 mmHg 66%
    16:00 +8°C° 0.1 mm 7 mps 708 mmHg 68%
    17:00 +8°C° 0 mm 6 mps 708 mmHg 71%
    18:00 +7°C° 0 mm 5 mps 709 mmHg 74%
    19:00 +6°C° 0 mm 5 mps 710 mmHg 77%
    20:00 +6°C° 0 mm 4 mps 710 mmHg 78%
    21:00 +5°C° 0 mm 4 mps 711 mmHg 79%
    22:00 +5°C° 0 mm 3 mps 711 mmHg 80%
    23:00 +4°C° 0 mm 3 mps 711 mmHg 83%

    27 July, Thursday

    Time Temperature Precipitation Wind Pressure Humidity
    00:00 +4°C° 0 mm 2 mps 711 mmHg 87%
    01:00 +4°C° 0 mm 2 mps 711 mmHg 91%
    02:00 +3°C° 0 mm 2 mps 712 mmHg 92%
    03:00 +3°C° 0 mm 1 mps 712 mmHg 94%
    04:00 +3°C° 0 mm 1 mps 712 mmHg 96%
    05:00 +3°C° 0 mm 1 mps 712 mmHg 96%
    06:00 +2°C° 0 mm 1 mps 713 mmHg 96%
    07:00 +2°C° 0 mm 1 mps 713 mmHg 96%
    08:00 +5°C° 0 mm 1 mps 714 mmHg 83%
    09:00 +7°C° 0 mm 1 mps 714 mmHg 71%
    10:00 +9°C° 0 mm 0 mps 715 mmHg 59%
    11:00 +11°C° 0 mm 1 mps 715 mmHg 53%
    12:00 +12°C° 0 mm 1 mps 714 mmHg 47%
    13:00 +13°C° 0 mm 2 mps 714 mmHg 41%
    14:00 +13°C° 0 mm 2 mps 713 mmHg 44%
    15:00 +12°C° 0 mm 2 mps 713 mmHg 46%
    16:00 +12°C° 0 mm 2 mps 713 mmHg 49%
    17:00 +9°C° 0 mm 2 mps 713 mmHg 56%
    18:00 +7°C° 0 mm 2 mps 713 mmHg 64%
    19:00 +6°C° 0 mm 2 mps 713 mmHg 71%
    20:00 +6°C° 0 mm 2 mps 713 mmHg 71%
    21:00 +5°C° 0 mm 2 mps 713 mmHg 72%
    22:00 +5°C° 0 mm 2 mps 713 mmHg 72%
    23:00 +5°C° 0 mm 2 mps 712 mmHg 74%

    28 July, Friday

    Time Temperature Precipitation Wind Pressure Humidity
    00:00 +5°C° 0 mm 2 mps 712 mmHg 77%
    01:00 +5°C° 0 mm 2 mps 711 mmHg 79%
    02:00 +5°C° 0 mm 2 mps 711 mmHg 81%
    03:00 +4°C° 0 mm 2 mps 710 mmHg 82%
    04:00 +4°C° 0 mm 2 mps 709 mmHg 83%
    05:00 +4°C° 0.3 mm 3 mps 710 mmHg 82%
    06:00 +4°C° 0.3 mm 4 mps 710 mmHg 81%
    07:00 +5°C° 0.3 mm 4 mps 710 mmHg 80%
    08:00 +6°C° 0.2 mm 5 mps 710 mmHg 80%
    09:00 +6°C° 0.2 mm 5 mps 710 mmHg 81%
    10:00 +7°C° 0.2 mm 5 mps 710 mmHg 81%
    11:00 +7°C° 0 mm 5 mps 710 mmHg 79%
    12:00 +8°C° 0 mm 5 mps 709 mmHg 78%
    13:00 +9°C° 0 mm 5 mps 709 mmHg 76%
    14:00 +8°C° 0 mm 5 mps 709 mmHg 75%
    15:00 +8°C° 0 mm 4 mps 709 mmHg 74%
    16:00 +8°C° 0 mm 4 mps 710 mmHg 72%
    17:00 +7°C° 0 mm 3 mps 710 mmHg 78%
    18:00 +5°C° 0 mm 3 mps 710 mmHg 84%
    19:00 +4°C° 0 mm 2 mps 711 mmHg 90%
    20:00 +3°C° 0 mm 2 mps 711 mmHg 91%
    21:00 +3°C° 0 mm 2 mps 711 mmHg 91%
    22:00 +3°C° 0 mm 1 mps 711 mmHg 92%
    23:00 +3°C° 0 mm 1 mps 711 mmHg 90%
    Show more